Погода Мыс Лопатка

Погода Мыс Лопатка : погода сейчас, прогноз погоды и архив. Всё, что Вы хотите узнать о погоде Мыс Лопатка!

Поиск расширенной информации на нашем сайте:

Другие новости

Новости СМИ2

Главная страница сайта

Новости сайта

03.07.2017

Напоминаем, что на нашем специализированном сайте Метеоцентр.Азия вы можете получить высокодетализированные автоматические прогнозы погоды по пунктам России, СНГ и мира в авиационном формате (включающие направление и скорость ветра, видимость, явления погоды, количество и форму облачности, нижнюю и верхнюю границу облачности).


Погода Мыс Лопатка - сегодня

Время (UTC), дата Ветер
(°,м/с) 
Видим.   Явления Облачность Т
(°С)
Тd
(°С)
f(%) Тe
(°С)
Pmin
(гПа)
dP
(гПа)
Po
(мм)
O2
(г/м3)
Тmin Tmax R s Состояние
почвы
15 20.11.17 310 (СЗ) 4000 м  слаб. ливневой снег  10/10 300 м кучево-дожд. 
[Cb cap]
-1.6 -2 97 -4  1009.5  0.3  752  305           
18 20.11.17 260 (З) 20000 м  {ливн. осадки}  3/3 600 м 
[Sc]
-0.4 -1.9 90 -2  1011.1  1.6  754  304           
21 20.11.17 190 (Ю) 7-11{11}  20000 м    3/3 600 м кучево-дожд. 
[Cb calv]
+0.6 -3 77 -3  1013.2  755  304  -2.1    0.4  равномерный
сухой снег
100% 
00 21.11.17 220 (ЮЗ) 10-15{15}  20000 м  {ливн. осадки}  3/3 600 м кучево-дожд. 
[Cb calv]
+1.1 -2.5 77 -4  1012.6  -0.6  755  303           
03 21.11.17 220 (ЮЗ) 11-15{17}  20000 м    8/3 600 м средняя, верхняя 
[Sc|Ac trans|Ci fib]
+1.5 -3.3 70 -3  1011.9  -0.7  754  303           
06 21.11.17 230 (ЮЗ) 9-13{17}  20000 м    9/3 600 м средняя, верхняя 
[Sc|Ac trans|Ci sp]
+1.3 -3.3 71 -3  1011.9  754  303           
12 21.11.17 270 (З) 6{16}  20000 м  в посл. час ливневой снег  1/1 600 м 
[Sc]
-1 -4.6 77 -5  1012.8  0.2  755  306           
18 21.11.17 310 (СЗ) 10-16{16}  20000 м  {ливн. осадки}  3/1 600 м верхняя 
[Sc|Ci sp]
-2.7 -5.8 79 -8  1012.9  0.7  755  308           
21 21.11.17 290 (З) 12-15{20}  4000 м  слаб. ливневой снег  8/8 300 м кучево-дожд. 
[Cb cap]
+4 -4.9 52 1015.1  1.9  756  301  -4.3    0.3  равномерный
сухой снег
100% 
00 22.11.17 290 (З) 12-17{17}  4000 м  слаб. ливневой снег  9/9 300 м кучево-дожд. 
[Cb cap]
-2.7 -6.2 77 -9  1016.5  1.5  758  309           
03 22.11.17 300 (СЗ) 10-15{17}  10 км  слаб. ливневой снег  8/8 300 м кучево-дожд. 
[Cb cap]
-1.8 -6.3 71 -7  1017.3  0.8  758  308           
06 22.11.17 240 (ЮЗ) 6{17}  4000 м  слаб. ливневой снег  9/9 300 м кучево-дожд. 
[Cb cap]
-2.5 -4.4 87 -6  1019.8  2.5  760  310           
09 22.11.17 230 (ЮЗ) 4{13}  20000 м  {ливн. осадки}  8/8 600 м 
[Sc]
-1.3 -6.9 66 -4  1021.7  1.9  761  309    -1.3  0.0     
12 22.11.17 200 (Ю) 9-13{12}  20000 м  {ливн. осадки}  10/10 600 м 
[Sc]
-0.2 -2.9 82 -5  1022.4  0.7  762  308           
15 22.11.17 220 (ЮЗ) 12-17{18}  20000 м    10/10 600 м 
[Sc]
+1.9 -1.6 78 -3  1021.9  -0.5  762  305           
18 22.11.17 200 (Ю) 11-15{17}  20000 м    10/10 600 м 
[Sc]
+2.1 -1.8 75 -3  1022.1  0.3  762  305           
21 22.11.17 190 (Ю) 10-15{17}  20000 м    9/9 600 м 
[Sc]
+2.8 -0.3 80 -1  1011.4  -0.4  761  304  -1.5      <0.5  мокрый или
старый снег
50-90% 
00 23.11.17 180 (Ю) 11-17{17}  20000 м    10/8 600 м средняя 
[Sc|Ac As]
+3.1 +0.8 85 -1  1010.9  -0.5  761  303           
03 23.11.17 180 (Ю) 11-17{18}  10 км  слаб. дождь  10/5 300 м средняя 
[Frnb|As op]
+3.3 +1.6 89 -1  1018.9  -2  759  302           
06 23.11.17 170 (Ю) 13-18{22}  20000 м  {ливн. осадки}  10/8 600 м средняя 
[Sc|As trans]
+3.9 +2.3 89 -1    -0.8  759  301           
09 23.11.17 170 (Ю) 15-21{21}  10 км  слаб. дождь{ливн. осадки}  10/8 300 м средняя 
[Frnb|As op]
+4 +2.4 89 -1  1015.4  -2.7  757  300    +4  0.4     
12 23.11.17 170 (Ю) 12-19{21}  20000 м  {ливн. осадки, дождь}  10/8 600 м 
[Sc]
+4.1 +2.1 87 1014.7  -0.7  756  300           
15 23.11.17 150 (ЮВ) 15-21{24}  20000 м    10/10 600 м 
[Sc]
+4.2 +2.2 87 -1  1010.5  -4.1  753  299           
18 23.11.17 150 (ЮВ) 20-26{26}  20000 м    10/10 300 м 
[Sc]
+4.1 +3.8 98 -2  1005.1  -5.4  750  297           
21 23.11.17 140 (ЮВ) 20-26{27}  4000 м  слаб. дождь  10/10 300 м 
[Frnb|Ns]
+5.2 +3.2 87 999.3  -6.7  745  294  +3.9    0.6     
Время (UTC), дата Ветер
(°,м/с) 
Видим.   Явления Облачность Т
(°С)
Тd
(°С)
f(%) Тe
(°С)
Pmin
(гПа)
dP
(гПа)
Po
(мм)
O2
(г/м3)
Тmin Tmax R s Состояние
почвы

Для получения пояснительной информации подведите курсор к названию столбца.

ПОГОДА Мыс Лопатка - архив

Всё, что Вы хотите узнать о погоде Мыс Лопатка - удобно и подробно!

Выберите нужную дату (начиная с 1 января 2015* года) и нажмите кнопку "Найти".
Будут отображены архивные сводки погоды по пункту Мыс Лопатка, начиная с указанной даты.


Отображать данные в формате CSV (для использования в таблицах Excel)


Внимание! Наш архив погоды предназначен исключительно для личного некоммерческого использования в познавательных целях. Если Вам необходимы официальные справки о состоянии погоды (для производственных, юридических, коммерческих и т.п. целей), обращайтесь в органы Росгидромета.

*Примечание: данная дата относится к архиву по метеостанциям СССР (Россия, СНГ, Балтия).
Архив по метеостанциям Зарубежной Европы и Азии (кроме Китая) хранится 10 дней, по другим регионам земного шара (Китай, Африка, Америка, Австралия, Океания) - 1 день.

Мыс Лопатка - район местоположения метеостанции


Название, широта, долгота, высота метеостанции:
Мыс Лопатка 50.9°ш. 156.7°д. 48 м над ур. моря [Российская Федерация]

Дополнительная информация

В oтличие oт бoльшинства пoгoдных сайтoв мы публикуем пoдрoбную метеoинфoрмацию в детальнoм прoфессиoнальнoм фoрмате.

Характеристики температуры и влажнoсти вoздуха измеряются на высoте 2 м в тени вдали oт зданий и деревьев.
Скoрoсть ветра измеряется на высoте 10 м (на урoвне рoста челoвека скoрoсть ветра ниже в 1.5-2 раза). Если метеoстанция нахoдится в гoрoде или в лесу, тo скoрoсть ветра занижена на 2-4 м/с пo сравнению с oткрытым местoм. Скoрoсть ветра над акватoриями крупных рек и oзёр, а также на вершинах хoлмoв на 2-5 м/с выше, чем в oбычных услoвиях.
Атмoсфернoе давление в разных тoчках местнoсти мoжет значительнo oтличаться oт давления на метеoстанции, в зависимoсти oт услoвий рельефа (при пoдъёме на 10 м давление пoнижается примернo на 1 мм рт.ст.).